Charlotte, MI

2:52 AM EDT on August 25, 2016 (GMT -0400)
Charlotte

Weather History for KFPK - November, 2013

Change the Weather History Date:

Wednesday, November 20, 2013

  Actual Average (KLAN) Record (KLAN)
Temperature  
Mean Temperature 35 °F 38 °F  
Max Temperature 45 °F 45 °F 67 °F (1953)
Min Temperature 25 °F 31 °F 5 °F (1895)
Degree Days  
Heating Degree Days 30 27  
Month to date heating degree days 469  
Since 1 July heating degree days 1119  
Cooling Degree Days 0 0  
Month to date cooling degree days 0  
Year to date cooling degree days 625  
Moisture  
Dew Point 26 °F    
Average Humidity 72    
Maximum Humidity 92    
Minimum Humidity 45    
Precipitation  
Precipitation 0.00 in 0.09 in 1.36 in (1900)
Month to date precipitation 1.91  
Year to date precipitation 29.03  
Snow  
Snow 0.00 in 0.10 in 12.50 in (1869)
Month to date snowfall 1.5  
Since 1 July snowfall 1.9  
Since 1 September snowfall 1.9  
Snow Depth -    
Sea Level Pressure  
Sea Level Pressure 30.29 in    
Wind  
Wind Speed 4 mph (SE)    
Max Wind Speed 15 mph    
Max Gust Speed 23 mph    
Visibility 10 miles    
Events      
T = Trace of Precipitation, MM = Missing Value Source: NWS Daily Summary

Daily Weather History Graph

Daily Weather History Graph

Search for Another Location

Airport or City:

Trip Planner

Search our weather history database for the weather conditions in past years. The results will help you decide how hot, cold, wet, or windy it might be!

Date:

Astronomy

Nov. 20, 2013 Rise Set
Actual Time 7:37 AM EST 5:12 PM EST
Civil Twilight 7:06 AM EST 5:43 PM EST
Nautical Twilight 6:31 AM EST 6:17 PM EST
Astronomical Twilight 5:58 AM EST 6:51 PM EST
Moon 7:54 PM EST (11/20) 10:01 AM EST (11/20)
Length of Visible Light 10h 36m
Length of Day
9h 35m
Waning Gibbous, 91% of the Moon is Illuminated
Nov 20
Waning Gibbous
Nov 25
Last Quarter
Dec 2
New
Dec 9
First Quarter
Dec 17
Full

Hourly Weather History & Observations

Time (EST) Temp. Windchill Dew Point Humidity Pressure Visibility Wind Dir Wind Speed Gust Speed Precip Events Conditions
12:15 AM 29.5 °F - 23.0 °F 77% 30.36 in 10.0 mi Calm Calm - N/A   Clear
12:35 AM 29.3 °F 25.6 °F 23.0 °F 77% 30.36 in 10.0 mi SE 3.5 mph - N/A   Clear
12:55 AM 29.1 °F - 23.0 °F 78% 30.36 in 10.0 mi Calm Calm - N/A   Clear
1:15 AM 28.9 °F 25.2 °F 23.2 °F 79% 30.36 in 10.0 mi SE 3.5 mph - N/A   Clear
1:35 AM 28.9 °F 25.2 °F 23.4 °F 80% 30.36 in 10.0 mi SE 3.5 mph - N/A   Clear
1:56 AM 28.8 °F - 23.0 °F 79% 30.36 in 10.0 mi Calm Calm - N/A   Clear
2:15 AM 28.4 °F - 23.2 °F 81% 30.36 in 10.0 mi Calm Calm - N/A   Clear
2:35 AM 28.0 °F 24.2 °F 23.0 °F 81% 30.36 in 10.0 mi SE 3.5 mph - N/A   Clear
2:55 AM 28.0 °F - 23.0 °F 81% 30.36 in 10.0 mi Calm Calm - N/A   Clear
3:15 AM 28.4 °F - 23.0 °F 80% 30.37 in 10.0 mi Calm Calm - N/A   Clear
3:35 AM 28.2 °F - 23.2 °F 81% 30.37 in 10.0 mi Calm Calm - N/A   Clear
3:55 AM 26.2 °F - 22.3 °F 85% 30.37 in 10.0 mi Calm Calm - N/A   Clear
4:15 AM 26.2 °F - 23.0 °F 88% 30.37 in 10.0 mi Calm Calm - N/A   Clear
4:35 AM 26.6 °F 22.6 °F 23.0 °F 86% 30.37 in 10.0 mi East 3.5 mph - N/A   Clear
4:55 AM 26.6 °F 22.6 °F 23.0 °F 86% 30.37 in 10.0 mi East 3.5 mph - N/A   Clear
5:15 AM 27.1 °F - 23.5 °F 86% 30.37 in 10.0 mi Calm Calm - N/A   Clear
5:35 AM 26.6 °F - 23.7 °F 89% 30.38 in 10.0 mi Calm Calm - N/A   Clear
5:55 AM 25.3 °F - 23.0 °F 91% 30.38 in 10.0 mi Calm Calm - N/A   Clear
6:16 AM 25.9 °F - 23.4 °F 90% 30.38 in 10.0 mi Calm Calm - N/A   Clear
6:35 AM 25.5 °F - 23.0 °F 90% 30.37 in 4.0 mi Calm Calm - N/A   Clear
6:55 AM 25.7 °F - 23.2 °F 90% 30.38 in 10.0 mi Calm Calm - N/A   Clear
7:15 AM 26.1 °F - 23.9 °F 92% 30.38 in 7.0 mi Calm Calm - N/A   Clear
7:35 AM 25.7 °F - 23.5 °F 92% 30.37 in 7.0 mi Calm Calm - N/A   Clear
7:55 AM 25.9 °F - 23.9 °F 92% 30.37 in 7.0 mi Calm Calm - N/A   Clear
8:15 AM 26.8 °F 22.8 °F 24.6 °F 92% 30.37 in 7.0 mi ESE 3.5 mph - N/A   Clear
8:35 AM 27.9 °F 22.6 °F 25.3 °F 90% 30.36 in 5.0 mi ESE 4.6 mph - N/A   Clear
8:55 AM 28.9 °F 23.9 °F 25.9 °F 88% 30.36 in 10.0 mi ESE 4.6 mph - N/A   Clear
9:15 AM 30.0 °F 25.2 °F 26.4 °F 86% 30.36 in 10.0 mi SE 4.6 mph - N/A   Clear
9:35 AM 31.1 °F 25.4 °F 26.8 °F 84% 30.36 in 10.0 mi SSE 5.8 mph - N/A   Clear
9:55 AM 32.2 °F - 27.9 °F 84% 30.36 in 10.0 mi Calm Calm - N/A   Clear
10:15 AM 34.5 °F 29.4 °F 29.3 °F 81% 30.35 in 10.0 mi SE 5.8 mph - N/A   Clear
10:35 AM 36.0 °F 29.6 °F 30.0 °F 79% 30.35 in 10.0 mi SE 8.1 mph - N/A   Clear
10:55 AM 37.0 °F 28.5 °F 30.0 °F 76% 30.34 in 10.0 mi SE 13.8 mph 19.6 mph N/A   Clear
11:15 AM 37.6 °F 29.6 °F 29.3 °F 72% 30.32 in 10.0 mi SE 12.7 mph 23.0 mph N/A   Clear
11:35 AM 38.5 °F 29.9 °F 28.4 °F 67% 30.31 in 10.0 mi ESE 15.0 mph 21.9 mph N/A   Clear
11:55 AM 39.2 °F 32.0 °F 27.7 °F 63% 30.30 in 10.0 mi ESE 11.5 mph 21.9 mph N/A   Clear
12:15 PM 40.1 °F 33.2 °F 25.7 °F 56% 30.30 in 10.0 mi SE 11.5 mph 17.3 mph N/A   Clear
12:35 PM 40.6 °F 34.3 °F 25.9 °F 56% 30.29 in 10.0 mi SE 10.4 mph - N/A   Clear
12:55 PM 41.2 °F 34.5 °F 25.0 °F 53% 30.27 in 10.0 mi SE 11.5 mph 18.4 mph N/A   Clear
1:15 PM 42.3 °F 36.3 °F 24.4 °F 49% 30.27 in 10.0 mi ESE 10.4 mph 18.4 mph N/A   Clear
1:35 PM 42.1 °F 36.1 °F 24.4 °F 50% 30.27 in 10.0 mi SE 10.4 mph 16.1 mph N/A   Clear
1:55 PM 43.9 °F 39.3 °F 25.5 °F 48% 30.26 in 10.0 mi ESE 8.1 mph - N/A   Clear
2:15 PM 43.9 °F 38.8 °F 25.2 °F 48% 30.24 in 10.0 mi SSE 9.2 mph - N/A   Clear
2:35 PM 44.4 °F 39.0 °F 25.5 °F 48% 30.22 in 10.0 mi ESE 10.4 mph - N/A   Clear
2:55 PM 44.4 °F 40.5 °F 25.7 °F 48% 30.22 in 10.0 mi ESE 6.9 mph - N/A   Clear
3:16 PM 45.0 °F 39.7 °F 24.8 °F 45% 30.21 in 10.0 mi ESE 10.4 mph - N/A   Clear
3:35 PM 44.6 °F 38.8 °F 24.6 °F 45% 30.20 in 10.0 mi ESE 11.5 mph 16.1 mph N/A   Clear
3:55 PM 44.1 °F 39.0 °F 25.2 °F 47% 30.20 in 10.0 mi ESE 9.2 mph - N/A   Clear
4:15 PM 43.7 °F 40.3 °F 25.7 °F 49% 30.20 in 10.0 mi ESE 5.8 mph - N/A   Clear
4:35 PM 41.9 °F 36.3 °F 25.7 °F 53% 30.21 in 10.0 mi SSE 9.2 mph - N/A   Clear
4:56 PM 41.0 °F 36.4 °F 26.1 °F 55% 30.21 in 10.0 mi SE 6.9 mph - N/A   Clear
5:15 PM 39.9 °F 36.7 °F 26.6 °F 59% 30.20 in 10.0 mi SE 4.6 mph - N/A   Clear
5:35 PM 38.3 °F 33.9 °F 27.1 °F 64% 30.20 in 10.0 mi ESE 5.8 mph - N/A   Clear
5:55 PM 38.3 °F 32.5 °F 27.3 °F 65% 30.19 in 10.0 mi ESE 8.1 mph - N/A   Clear
6:15 PM 37.6 °F 33.1 °F 27.5 °F 67% 30.21 in 10.0 mi ESE 5.8 mph - N/A   Clear
6:35 PM 37.0 °F 31.6 °F 27.5 °F 68% 30.21 in 10.0 mi SE 6.9 mph - N/A   Clear
6:55 PM 36.5 °F 32.7 °F 27.1 °F 69% 30.21 in 10.0 mi SE 4.6 mph - N/A   Clear
7:15 PM 36.1 °F 33.5 °F 27.1 °F 70% 30.21 in 10.0 mi SE 3.5 mph - N/A   Clear
7:35 PM 36.0 °F 33.3 °F 27.1 °F 70% 30.21 in 10.0 mi SE 3.5 mph - N/A   Clear
7:55 PM 35.6 °F - 27.1 °F 71% 30.21 in 10.0 mi Calm Calm - N/A   Clear
8:15 PM 35.8 °F - 27.5 °F 72% 30.21 in 10.0 mi Calm Calm - N/A   Clear
8:35 PM 35.8 °F 33.0 °F 27.5 °F 72% 30.20 in 10.0 mi ESE 3.5 mph - N/A   Clear
8:55 PM 35.6 °F - 28.0 °F 74% 30.19 in 10.0 mi Calm Calm - N/A   Clear
9:15 PM 36.5 °F 33.9 °F 28.4 °F 72% 30.18 in 10.0 mi ESE 3.5 mph - N/A   Clear
9:35 PM 36.9 °F 32.2 °F 29.1 °F 74% 30.18 in 10.0 mi SE 5.8 mph - N/A   Clear
9:55 PM 37.9 °F 33.5 °F 29.7 °F 72% 30.17 in 10.0 mi SE 5.8 mph - N/A   Scattered Clouds
10:15 PM 38.5 °F 33.4 °F 30.2 °F 72% 30.18 in 10.0 mi SE 6.9 mph - N/A   Overcast
10:35 PM 39.2 °F 35.9 °F 30.6 °F 71% 30.17 in 10.0 mi SE 4.6 mph - N/A   Overcast
10:55 PM 39.4 °F - 31.1 °F 72% 30.18 in 10.0 mi Calm Calm - N/A   Overcast
11:15 PM 40.1 °F 36.1 °F 31.6 °F 72% 30.21 in 10.0 mi South 5.8 mph - N/A   Overcast
11:35 PM 39.7 °F 35.6 °F 31.8 °F 73% 30.21 in 10.0 mi SSE 5.8 mph - N/A   Overcast
11:55 PM 40.1 °F 36.9 °F 31.8 °F 72% 30.21 in 10.0 mi SSE 4.6 mph - N/A   Overcast